Custom file does not exist C:\wdisplay\webfiles\testtags.txt


Thunder radar blitzortung!


Rain radar rain snow radar


Visit our other weather sites:

Template documentation
and downloads

And another site



Rain From: 19-10-2021 18:00 Until: 20-10-2021 21:00 warning for: Rain Level: Yellow info button
dansk:
Kategori 1 varsel: DMI forventer kraftig regn mellem 30 og 50 mm i varslingsperioden.

Vær opmærksom på, at vand kan samles i lavtliggende områder f.eks. kældre, vejbaner og viadukter. Luk vinduer og døre. Tilpas kørselshastigheden til sigtbarhedsforholdene.

english:
Category 1: Continuous rain with 30 to 50 mm.

Heavy rainfall. Risk of flash flood, flooding of low-lying areas, flooding of basements, water on roads and viaducts (aquaplaning), and reduced visibility. 

15 day weatherforecast Ålesund (NO)

  • Overview
  • Hour-by-hour
  • 15 day forecast
  • Extras
  • Compare
  • Maps
  • Daily maps
  • More »
  • Info
  • Statistics
  • Direct links
    Temperature 6h Precip Wind  
 08:39     18:03    Daylength: 9:24 Today
08:00
11°
38.5 mm
7
14:00
10°
43.5 mm
6
20:00
59.2 mm
8
 08:41     18:00    Daylength: 9:19 Tomorrow
02:00
25.6 mm
11
08:00
57.2 mm
12
14:00
63.8 mm
15
20:00
70.0 mm
14
 08:44     17:57    Daylength: 9:13 Friday 22 Oct
02:00
78.4 mm
12
08:00
78.5 mm
10
14:00
135.9 mm
10
warningclass
20:00
139.0 mm
9
Locationinfo
Region: Møre og Romsdal
Latitude: 62.4715°N
Longitude: 6.1729°E
3 masl
Postcode: 6003
Temperature/Precipitation /Pressure Thunder/Dewpoint
    Temperature Pressure 1h Precip Dewpoint Wind UV Cloudcover  
 08:39     18:03    Daylength: 9:24 Today
03:00
10°
983.0 hPa 7.8 mm
49%
8.8°
3
Gust: 3.6 m/s
86%
04:00
10°
981.1 hPa 4.9 mm
82%
9.3°
4
Gust: 3.1 m/s
86%
05:00
10°
979.9 hPa 5.4 mm
82%
9.9°
6
Gust: 7.7 m/s
86%
06:00
10°
978.7 hPa 6.1 mm
82%
9.7°
6
Gust: 7.7 m/s
86%
07:00
10°
978.2 hPa 7.5 mm
82%
9.6°
6
Gust: 7.5 m/s
86%
08:00
11°
977.8 hPa 6.8 mm
82%
10.7°
7
Gust: 7.7 m/s
83%
09:00
11°
977.1 hPa 5.8 mm
82%
10.4°
6
Gust: 7.6 m/s
86%
10:00
11°
976.6 hPa 6.0 mm
82%
10.0°
5
Gust: 7.1 m/s
86%
11:00
11°
976.0 hPa 6.7 mm
82%
10.1°
5
Gust: 6.8 m/s
86%
12:00
10°
975.6 hPa 7.5 mm
82%
9.6°
6
Gust: 8.2 m/s
86%
13:00
10°
Feels: 7.2°
975.0 hPa 8.4 mm
82%
8.4°
6
Gust: 8.1 m/s
86%
14:00
10°
Feels: 7.1°
974.9 hPa 9.2 mm
82%
7.8°
6
Gust: 6.8 m/s
86%
15:00
Feels: 6.2°
974.2 hPa 8.8 mm
82%
5.9°
5
Gust: 6.2 m/s
86%
16:00
Feels: 5.9°
973.9 hPa 10.0 mm
82%
5.0°
6
Gust: -0.5 m/s
85%
17:00
Feels: 5.2°
974.0 hPa 10.2 mm
82%
4.5°
7
Gust: 3.2 m/s
86%
18:00
Feels: 5.0°
974.0 hPa 10.9 mm
82%
4.2°
6
Gust: 4.9 m/s
86%
19:00
Feels: 4.1°
974.4 hPa 9.8 mm
82%
4.8°
7
Gust: 1.6 m/s
84%
20:00
Feels: 3.9°
974.7 hPa 9.6 mm
82%
4.2°
8
Gust: 6.6 m/s
86%
21:00
Feels: 4.0°
974.8 hPa 9.0 mm
82%
3.9°
7
Gust: 5.7 m/s
71%
22:00
Feels: 3.6°
974.9 hPa
82%
3.8°
7
Gust: 8.5 m/s
42%
23:00
Feels: 2.8°
975.0 hPa 8.3 mm
79%
2.8°
9
Gust: 10.3 m/s
84%
 08:41     18:00    Daylength: 9:19 Tomorrow
00:00
Feels: 2.4°
975.2 hPa
75%
3.1°
10
Gust: 9.9 m/s
61%
01:00
Feels: 2.2°
975.2 hPa 8.3 mm
69%
3.1°
10
Gust: 11.6 m/s
10%
02:00
Feels: 1.9°
975.3 hPa
72%
3.1°
11
Gust: 12.2 m/s
17%
03:00
Feels: 1.7°
975.4 hPa 8.9 mm
80%
2.8°
11
Gust: 11.8 m/s
86%
04:00
Feels: 1.0°
975.6 hPa 9.5 mm
82%
2.5°
12
Gust: 9.3 m/s
86%
05:00
Feels: 0.8°
975.7 hPa 9.3 mm
82%
2.3°
11
Gust: 9.7 m/s
83%
06:00
Feels: 1.8°
975.7 hPa 9.7 mm
82%
2.6°
11
Gust: 10.6 m/s
86%
07:00
Feels: 1.8°
975.9 hPa 9.7 mm
82%
2.6°
11
Gust: 2.1 m/s
86%
08:00
Feels: 1.6°
975.9 hPa 10.0 mm
82%
3.1°
12
Gust: -0.5 m/s
86%
09:00
Feels: 1.7°
976.0 hPa 10.1 mm
82%
3.5°
12
Gust: -1.8 m/s
86%
10:00
Feels: 2.0°
976.4 hPa 10.1 mm
82%
3.5°
13
Gust: -2.6 m/s
86%
11:00
Feels: 2.0°
977.1 hPa 10.4 mm
82%
3.7°
13
Gust: -3.3 m/s
86%
12:00
Feels: 2.0°
978.0 hPa 10.7 mm
82%
3.7°
14
Gust: -4.5 m/s
86%
13:00
Feels: 1.8°
979.0 hPa 11.0 mm
82%
3.9°
14
Gust: -4.6 m/s
86%
14:00
Feels: 1.8°
979.9 hPa 11.5 mm
82%
3.7°
15
Gust: -5.1 m/s
86%
15:00
Feels: 1.8°
980.9 hPa 11.4 mm
82%
3.4°
15
Gust: -5.3 m/s
84%
16:00
Feels: 1.7°
982.0 hPa 11.6 mm
82%
3.4°
15
Gust: -5.6 m/s
31%
17:00
Feels: 1.7°
982.9 hPa 11.7 mm
82%
3.2°
15
Gust: -6.6 m/s
23%
18:00
Feels: 1.6°
983.7 hPa 11.7 mm
82%
3.1°
15
Gust: -7.6 m/s
23%
19:00
Feels: 1.5°
984.4 hPa 11.7 mm
82%
3.1°
14
Gust: -8.3 m/s
18%
20:00
Feels: 1.5°
985.1 hPa 12.0 mm
82%
3.1°
14
Gust: -7.9 m/s
25%
21:00
Feels: 1.3°
985.8 hPa 11.6 mm
82%
3.0°
14
Gust: -8.5 m/s
34%
22:00
Feels: 1.3°
986.3 hPa 11.7 mm
82%
3.2°
14
Gust: -7.7 m/s
51%
23:00
Feels: 0.8°
985.1 hPa 18.9 mm
100%
2.6°
13
Gust: -5.6 m/s
84%
 08:44     17:57    Daylength: 9:13 Friday 22 Oct
00:00
Feels: 0.6°
985.2 hPa 11.5 mm
100%
3.0°
12
Gust: -3.1 m/s
83%
01:00
Feels: 1.1°
985.2 hPa 12.4 mm
100%
2.7°
11
Gust: -1.4 m/s
66%
02:00
Feels: 1.0°
985.3 hPa 12.2 mm
100%
2.2°
12
Gust: -3.5 m/s
71%
03:00
Feels: 0.6°
985.4 hPa 12.2 mm
100%
3.5°
13
Gust: -2.9 m/s
92%
04:00
Feels: 1.0°
985.2 hPa 12.6 mm
100%
3.8°
13
Gust: -2.6 m/s
88%
05:00
Feels: 1.6°
985.0 hPa 12.9 mm
100%
5.3°
12
Gust: -3.1 m/s
83%
06:00
Feels: 1.8°
985.1 hPa 13.5 mm
100%
3.7°
11
Gust: -1.7 m/s
99% warningclass
07:00
Feels: 1.9°
985.5 hPa 13.5 mm
100%
4.1°
11
Gust: -3.2 m/s
100%
08:00
Feels: 2.1°
986.1 hPa 13.8 mm
100%
3.9°
10
Gust: -4.1 m/s
99%
09:00
Feels: 1.2°
990.2 hPa 22.0 mm
100%
3.4°
10
Gust: 18.7 m/s
100% warningclass
10:00
Feels: 1.4°
991.1 hPa 22.8 mm
100%
4.6°
10
Gust: 19 m/s
100% warningclass
11:00
Feels: 1.9°
992.0 hPa 22.8 mm
100%
4.9°
10
Gust: 19 m/s
100% warningclass
12:00
Feels: 2.3°
993.2 hPa 22.7 mm
100%
4.0°
10
Gust: 19.7 m/s
100% warningclass
13:00
Feels: 2.2°
994.4 hPa 22.8 mm
100%
4.8°
10
Gust: 19.6 m/s
100% warningclass
14:00
Feels: 2.4°
995.7 hPa 22.9 mm
100%
5.1°
10
Gust: 19.6 m/s
100% warningclass
15:00
Feels: 2.4°
997.1 hPa 23.0 mm
100%
4.6°
10
Gust: 19.7 m/s
100% warningclass
16:00
Feels: 2.3°
998.6 hPa 23.0 mm
100%
4.1°
11
Gust: 19.4 m/s
100% warningclass
17:00
Feels: 2.4°
1000.2 hPa 23.1 mm
100%
4.1°
10
Gust: 16.9 m/s
100%
18:00
Feels: 2.3°
1001.8 hPa 23.3 mm
100%
4.2°
10
Gust: 15.4 m/s
100%
19:00
Feels: 2.4°
1003.3 hPa 23.2 mm
100%
3.7°
9
Gust: 14.7 m/s
68%
20:00
Feels: 2.3°
1004.4 hPa 23.4 mm
100%
3.8°
9
Gust: 14.1 m/s
78%
21:00
Feels: 2.5°
1005.6 hPa 23.5 mm
100%
4.0°
8
Gust: 13.2 m/s
86%
22:00
Feels: 2.8°
1006.7 hPa 23.5 mm
100%
3.3°
7
Gust: 12.2 m/s
73%
23:00
Feels: 3.0°
1007.7 hPa 23.6 mm
100%
3.3°
7
Gust: 11.4 m/s
71%
 08:47     17:53    Daylength: 9:06 Saturday 23 Oct
00:00
Feels: 3.5°
1008.5 hPa 23.5 mm
100%
2.7°
6
Gust: 10.5 m/s
62%
01:00
Feels: 3.7°
1009.5 hPa 23.5 mm
100%
2.7°
5
Gust: 10 m/s
63%
02:00
Feels: 3.8°
1010.4 hPa 23.5 mm
100%
2.7°
5
Gust: 8.8 m/s
32%
Temperature/Precipitation /Pressure Thunder/Dewpoint
    Temperature Pressure Precip Dewpoint Wind Cloudcover  
 08:39     18:03    Daylength: 9:24 Today
05:00
10°
979.9 hPa 18.1 mm 9.9°
6
86%
08:00
11°
977.8 hPa 20.4 mm 10.7°
7
83%
11:00
11°
976.0 hPa 18.4 mm 10.1°
5
86%
14:00
10°
Feels: 7.1°
974.9 hPa 25.1 mm 7.8°
6
86%
17:00
Feels: 5.2°
974.0 hPa 28.9 mm 4.5°
7
86%
20:00
Feels: 3.9°
974.7 hPa 30.3 mm 4.2°
8
86%
23:00
Feels: 2.8°
975.0 hPa 17.3 mm 2.8°
9
84%
 08:41     18:00    Daylength: 9:19 Tomorrow
02:00
Feels: 1.9°
975.3 hPa 8.3 mm 3.1°
11
17%
05:00
Feels: 0.8°
975.7 hPa 27.7 mm 2.3°
11
83%
08:00
Feels: 1.6°
975.9 hPa 29.5 mm 3.1°
12
86%
11:00
Feels: 2.0°
977.1 hPa 30.6 mm 3.7°
13
86%
14:00
Feels: 1.8°
979.9 hPa 33.2 mm 3.7°
15
86%
17:00
Feels: 1.7°
982.9 hPa 34.6 mm 3.2°
15
23%
20:00
Feels: 1.5°
985.1 hPa 35.4 mm 3.1°
14
25%
23:00
Feels: 0.8°
985.1 hPa 42.3 mm 2.6°
13
84%
 08:44     17:57    Daylength: 9:13 Friday 22 Oct
02:00
Feels: 1.0°
985.3 hPa 36.1 mm 2.2°
12
71%
05:00
Feels: 1.6°
985.0 hPa 37.8 mm 5.3°
12
83%
08:00
Feels: 2.1°
986.1 hPa 40.7 mm 3.9°
10
99%
11:00
Feels: 1.9°
992.0 hPa 67.6 mm 4.9°
10
100% warningclass
14:00
Feels: 2.4°
995.7 hPa 68.4 mm 5.1°
10
100% warningclass
17:00
Feels: 2.4°
1000.2 hPa 69.1 mm 4.1°
10
100%
20:00
Feels: 2.3°
1004.4 hPa 69.8 mm 3.8°
9
78%
23:00
Feels: 3.0°
1007.7 hPa 70.7 mm 3.3°
7
71%
 08:47     17:53    Daylength: 9:06 Saturday 23 Oct
02:00
Feels: 3.8°
1010.4 hPa 70.5 mm 2.7°
5
32%
05:00
Feels: 6.1°
1013.8 hPa 126.3 mm -0.3°
5
1%
08:00
1015.7 hPa 126.5 mm -0.3°
1
1%
11:00
Feels: 3.5°
1017.1 hPa 126.5 mm 2.1°
4
1%
14:00
Feels: 4.6°
1018.4 hPa 126.5 mm 1.5°
4
1%
17:00
Feels: 5.2°
1017.8 hPa 126.5 mm 0.7°
4
1%
20:00
Feels: 4.9°
1016.6 hPa 126.5 mm 0.2°
4
1%
23:00
Feels: 4.4°
1016.4 hPa 126.5 mm -0.2°
4
1%
 08:50     17:50    Daylength: 9:00 Sunday 24 Oct
02:00
Feels: 4.2°
1015.0 hPa 126.5 mm 0.2°
6
1%
05:00
Feels: 5.4°
1013.3 hPa 126.5 mm 1.3°
7
1%
08:00
Feels: 6.4°
1012.3 hPa 126.5 mm 2.6°
6
1%
11:00
10°
Feels: 6.7°
1012.3 hPa 126.5 mm 3.0°
6
1%
14:00
10°
Feels: 7.3°
1011.8 hPa 126.6 mm 4.3°
5
1%
17:00
10°
1010.9 hPa 126.6 mm 4.3°
5
1%
20:00
10°
1010.1 hPa 126.6 mm 4.4°
6
1%
23:00
10°
1009.5 hPa 126.6 mm 3.7°
5
1%
 08:53     17:47    Daylength: 8:54 Monday 25 Oct
02:00
10°
1008.9 hPa 126.6 mm 4.0°
5
1%
05:00
10°
1008.2 hPa 126.6 mm 4.1°
5
1%
08:00
10°
1007.0 hPa 126.6 mm 3.8°
5
1%
11:00
10°
1006.5 hPa 126.6 mm 4.0°
7
1%
14:00
10°
1006.5 hPa 126.7 mm 4.8°
6
1%
17:00
10°
Feels: 7.0°
1005.9 hPa 126.7 mm 5.1°
6
1%
20:00
10°
Feels: 6.7°
1005.8 hPa 126.8 mm 5.6°
7
1%
23:00
Feels: 6.6°
1005.1 hPa 126.8 mm 5.1°
6
1%
 08:56     17:44    Daylength: 8:48 Tuesday 26 Oct
02:00
Feels: 6.5°
1004.7 hPa 127.1 mm 4.6°
5
1%
05:00
Feels: 5.0°
1004.5 hPa 127.4 mm 5.0°
7
1%
08:00
Feels: 5.2°
1002.9 hPa 127.4 mm 5.3°
6
1%
11:00
Feels: 6.2°
1000.2 hPa 127.5 mm 4.6°
5
1%
14:00
10°
Feels: 6.6°
995.4 hPa 127.5 mm 4.2°
6
1%
17:00
Feels: 5.9°
989.3 hPa 127.5 mm 4.4°
8
1%
20:00
Feels: 4.5°
988.8 hPa 131.0 mm 5.9°
10
1%
23:00
Feels: 5.0°
992.0 hPa 133.3 mm 5.4°
9
1%
 08:59     17:41    Daylength: 8:42 Wednesday 27 Oct
02:00
10°
992.4 hPa 266.9 mm 6.6°
11
1%
08:00
10°
Feels: 6.0°
992.2 hPa 269.5 mm 5.7°
9
1%
14:00
Feels: 4.6°
990.4 hPa 279.7 mm 5.7°
6
1%
20:00
Feels: 3.8°
988.9 hPa 305.1 mm 4.1°
13
1%
 09:02     17:38    Daylength: 8:36 Thursday 28 Oct
02:00
Feels: 3.4°
988.7 hPa 313.1 mm 4.2°
11
1%
08:00
Feels: 2.8°
987.6 hPa 317.9 mm 4.7°
8
1%
14:00
Feels: 3.9°
989.9 hPa 320.2 mm 5.1°
7
1%
20:00
Feels: 3.5°
991.2 hPa 325.4 mm 4.5°
7
1%
 09:04     17:35    Daylength: 8:31 Friday 29 Oct
02:00
Feels: 4.1°
991.7 hPa 347.7 mm 5.0°
6
1%
08:00
Feels: 4.8°
990.9 hPa 357.3 mm 4.5°
4
1%
14:00
Feels: 4.1°
997.7 hPa 367.8 mm 4.7°
3
1%
20:00
Feels: 6.2°
997.8 hPa 2.4 mm 4.7°
2
92%
 09:07     17:32    Daylength: 8:25 Saturday 30 Oct
02:00
Feels: 6.2°
999.2 hPa 2.1 mm 3.9°
2
88%
08:00
Feels: 5.9°
999.5 hPa 1.8 mm 3.5°
2
87%
14:00
Feels: 6.9°
1000.7 hPa 1.6 mm 3.6°
1
88%
20:00
Feels: 5.6°
1002.0 hPa 1.7 mm 3.3°
2
89%
 09:10     17:29    Daylength: 8:19 Sunday 31 Oct
02:00
Feels: 5.0°
1002.6 hPa 2.2 mm 2.9°
2
80%
07:00
Feels: 4.3°
1002.5 hPa 2.5 mm 2.3°
2
80%
13:00
Feels: 5.5°
1002.0 hPa 2.2 mm 2.6°
2
78%
19:00
Feels: 4.3°
1001.6 hPa 2.2 mm 2.6°
3
85%
 09:13     17:26    Daylength: 8:13 Monday 01 Nov
01:00
Feels: 4.4°
1001.5 hPa 1.9 mm 2.2°
3
85%
07:00
Feels: 4.5°
1001.3 hPa 1.2 mm 2.5°
2
87%
13:00
Feels: 5.3°
1001.7 hPa 1.3 mm 2.6°
3
80%
19:00
Feels: 4.2°
1001.4 hPa 0.9 mm 2.2°
3
78%
 09:16     17:23    Daylength: 8:07 Tuesday 02 Nov
01:00
Feels: 4.2°
1001.8 hPa 1.9 mm 2.0°
3
78%
07:00
Feels: 4.3°
1002.1 hPa 1.1 mm 2.0°
3
80%
13:00
Feels: 5.5°
1003.1 hPa 1.4 mm 3.3°
2
77%
19:00
Feels: 5.4°
1003.8 hPa 2.1 mm 2.7°
2
75%
 09:19     17:20    Daylength: 8:01 Wednesday 03 Nov
01:00
Feels: 5.1°
1004.5 hPa 2.3 mm 1.5°
1
69%
07:00
Feels: 4.1°
1004.0 hPa 1.3 mm 0.7°
2
71%
13:00
Feels: 5.4°
1004.2 hPa 0.4 mm 1.8°
2
69%
19:00
Feels: 3.6°
1003.8 hPa 1.7 mm 1.5°
3
80%
 09:22     17:17    Daylength: 7:55 Thursday 04 Nov
01:00
Feels: 2.9°
1003.3 hPa 1.9 mm 1.3°
3
83%
  CAPE Lifted Index Hail Supercell Tornado SRH 3km CL BTM PRES CL TOP PRES Swiss DWD icon SMHI TS
 08:39     18:03    Daylength: 9:24 Today
03:00 7 J/kg 2.9 K 0 % 0 % 0 % 0 m²/s² 0 0 3.08 61
04:00 51 J/kg 3.0 K 0 % 0 % 0 % 0 m²/s² 0 0 3.18 61
05:00 38 J/kg 2.3 K 0 % 0 % 0 % 0 m²/s² 0 0 2.51 61
06:00 43 J/kg 1.9 K 0 % 0 % 0 % 0 m²/s² 0 0 2.11 63
07:00 42 J/kg 2.5 K 0 % 0 % 0 % 0 m²/s² 0 0 2.74 63
08:00 34 J/kg 2.9 K 0 % 0 % 0 % 0 m²/s² 0 0 3.14 63
09:00 33 J/kg 2.8 K 0 % 0 % 0 % 0 m²/s² 0 0 3.1 61
10:00 67 J/kg 1.9 K 0 % 0 % 0 % 0 m²/s² 0 0 2.14 61
11:00 68 J/kg 1.5 K 0 % 0 % 0 % 0 m²/s² 0 0 1.83 61
12:00 52 J/kg 1.5 K 0 % 0 % 0 % 0 m²/s² 0 0 1.74 63
13:00 48 J/kg 1.4 K 0 % 0 % 0 % 0 m²/s² 0 0 1.64 63
14:00 19 J/kg 2.6 K 0 % 0 % 0 % 0 m²/s² 0 0 3.02 63
15:00 8 J/kg 4.2 K 0 % 0 % 0 % 0 m²/s² 0 0 4.44 61
16:00 33 J/kg 4.4 K 0 % 0 % 0 % 0 m²/s² 0 0 4.7 61
17:00 26 J/kg 5.9 K 0 % 0 % 0 % 0 m²/s² 0 0 6.23 63
18:00 53 J/kg 6.2 K 0 % 0 % 0 % 0 m²/s² 0 0 6.62 63
19:00 33 J/kg 7.5 K 0 % 0 % 0 % 0 m²/s² 0 0 7.86 63
20:00 78 J/kg 7.0 K 0 % 0 % 0 % 0 m²/s² 0 0 7.54 61
21:00 79 J/kg 7.8 K 0 % 0 % 0 % 0 m²/s² 0 0 11.34 61
22:00 89 J/kg 8.3 K 0 % 0 % 0 % 0 m²/s² 0 0 16.43 61
23:00 77 J/kg 8.5 K 0 % 0 % 0 % 0 m²/s² 0 0 15.94 3
 08:41     18:00    Daylength: 9:19 Tomorrow
00:00 94 J/kg 7.7 K 0 % 0 % 0 % 0 m²/s² 0 0 13.19 3
01:00 178 J/kg 6.8 K 0 % 0 % 0 % 0 m²/s² 0 0 10.58 2
02:00 196 J/kg 6.1 K 0 % 0 % 0 % 0 m²/s² 0 0 7.24 80
03:00 120 J/kg 5.9 K 0 % 0 % 0 % 0 m²/s² 0 0 7.79 80
04:00 190 J/kg 4.4 K 0 % 0 % 0 % 0 m²/s² 0 0 5.18 80
05:00 239 J/kg 3.5 K 0 % 0 % 0 % 0 m²/s² 0 0 4.4 80
06:00 170 J/kg 3.2 K 0 % 0 % 0 % 0 m²/s² 0 0 3.8 80
07:00 167 J/kg 2.6 K 0 % 0 % 0 % 0 m²/s² 0 0 3.14 80
08:00 203 J/kg 2.1 K 0 % 0 % 0 % 0 m²/s² 0 0 2.67 80
09:00 213 J/kg 2.4 K 0 % 0 % 0 % 0 m²/s² 0 0 2.97 80
10:00 203 J/kg 2.9 K 0 % 0 % 0 % 0 m²/s² 0 0 3.47 80
11:00 207 J/kg 3.3 K 0 % 0 % 0 % 0 m²/s² 0 0 3.84 80
12:00 219 J/kg 3.2 K 0 % 0 % 0 % 0 m²/s² 0 0 3.74 80
13:00 224 J/kg 2.9 K 0 % 0 % 0 % 0 m²/s² 0 0 3.38 80
14:00 215 J/kg 2.7 K 0 % 0 % 0 % 0 m²/s² 0 0 3.24 80
15:00 174 J/kg 3.2 K 0 % 0 % 0 % 0 m²/s² 0 0 3.65 80
16:00 229 J/kg 2.6 K 0 % 0 % 0 % 0 m²/s² 0 0 3.14 80
17:00 176 J/kg 2.8 K 0 % 0 % 0 % 0 m²/s² 0 0 3.34 80
18:00 207 J/kg 2.8 K 0 % 0 % 0 % 0 m²/s² 0 0 3.34 80
19:00 210 J/kg 3.0 K 0 % 0 % 0 % 0 m²/s² 0 0 3.54 80
20:00 225 J/kg 2.9 K 0 % 0 % 0 % 0 m²/s² 0 0 3.38 80
21:00 187 J/kg 3.6 K 0 % 0 % 0 % 0 m²/s² 0 0 4.14 80
22:00 191 J/kg 3.4 K 0 % 0 % 0 % 0 m²/s² 0 0 3.91 80
23:00 225 J/kg 2.8 K 0 % 0 % 0 % 0 m²/s² 0 0 3.37 80
 08:44     17:57    Daylength: 9:13 Friday 22 Oct
00:00 209 J/kg 2.1 K 0 % 0 % 0 % 0 m²/s² 0 0 2.64 80
01:00 194 J/kg 1.3 K 0 % 0 % 0 % 0 m²/s² 0 0 1.84 80
02:00 152 J/kg 1.2 K 0 % 0 % 0 % 0 m²/s² 0 0 1.74 80
03:00 172 J/kg 0.5 K 0 % 0 % 0 % 0 m²/s² 0 0 0.98 80
04:00 253 J/kg -0.2 K 0 % 0 % 0 % 0 m²/s² 0 0 0.31 80
05:00 466 J/kg -1.7 K 0 % 0 % 0 % 0 m²/s² 0 0 -1.16 80
06:00 283 J/kg -0.6 K 0 % 0 % 0 % 0 m²/s² 0 0 -0.06 95
07:00 328 J/kg -1.0 K 0 % 0 % 0 % 0 m²/s² 0 0 -0.58 81
08:00 233 J/kg -0.4 K 0 % 0 % 0 % 0 m²/s² 0 0 0.11 80
09:00 232 J/kg -0.4 K 0 % 0 % 0 % 0 m²/s² 0 0 0.11 80
10:00 319 J/kg -0.9 K 0 % 0 % 0 % 0 m²/s² 0 0 -0.45 81
11:00 249 J/kg 0.0 K 0 % 0 % 0 % 0 m²/s² 0 0 0.45 80
12:00 160 J/kg 1.7 K 0 % 0 % 0 % 0 m²/s² 0 0 2.21 80
13:00 152 J/kg 2.3 K 0 % 0 % 0 % 0 m²/s² 0 0 2.75 80
14:00 170 J/kg 2.5 K 0 % 0 % 0 % 0 m²/s² 0 0 2.92 80
15:00 153 J/kg 2.9 K 0 % 0 % 0 % 0 m²/s² 0 0 3.29 80
16:00 127 J/kg 3.3 K 0 % 0 % 0 % 0 m²/s² 0 0 3.72 80
17:00 145 J/kg 3.6 K 0 % 0 % 0 % 0 m²/s² 0 0 3.99 80
18:00 150 J/kg 4.0 K 0 % 0 % 0 % 0 m²/s² 0 0 4.36 80
19:00 141 J/kg 4.5 K 0 % 0 % 0 % 0 m²/s² 0 0 5.04 80
20:00 143 J/kg 4.9 K 0 % 0 % 0 % 0 m²/s² 0 0 6.01 80
21:00 145 J/kg 5.1 K 0 % 0 % 0 % 0 m²/s² 0 0 7.29 80
22:00 122 J/kg 6.4 K 0 % 0 % 0 % 0 m²/s² 0 0 10.06 80
23:00 136 J/kg 7.5 K 0 % 0 % 0 % 0 m²/s² 0 0 12.33 80
 08:47     17:53    Daylength: 9:06 Saturday 23 Oct
00:00 92 J/kg 9.3 K 0 % 0 % 0 % 0 m²/s² 0 0 15.39 80
01:00 97 J/kg 9.9 K 0 % 0 % 0 % 0 m²/s² 0 0 17.43 80
02:00 93 J/kg 10.4 K 0 % 0 % 0 % 0 m²/s² 0 0 17.93 80
Temperature Pressure Wind Precipitation
  EWN Forecast EWN WRFDA DWD ICON FMI HIRLAM MET Norway GFS
 08:39     18:03    Daylength: 9:24 Today
05:00 10.5° 979.9 hPa 6.5 m/s 18.1 mm 11.3° 978.4 hPa 7.1 m/s 41.3 mm 10.1° 979.9 hPa 1.7 m/s 11.2 mm 12.3° 979.6 hPa 9.3 m/s 0.0 mm 10.4° 980.5 hPa 5.3 m/s
08:00 11.2° 977.8 hPa 6.6 m/s 20.4 mm 10.5° 976.9 hPa 6.6 m/s 63.3 mm 11.4° 978.1 hPa 6.3 m/s 16.1 mm 12.0° 976.5 hPa 8.6 m/s 0.0 mm 10.6° 979.6 hPa 6.7 m/s
11:00 10.5° 976.0 hPa 5.0 m/s 18.4 mm 11.0° 974.8 hPa 6.4 m/s 71.9 mm 11.4° 976.5 hPa 2.4 m/s 5.8 mm 10.5° 974.7 hPa 8.9 m/s 0.0 mm 10.6° 977.7 hPa 6.7 m/s
14:00 9.8° 974.9 hPa 5.8 m/s 25.1 mm 9.8° 972.5 hPa 5.3 m/s 89.6 mm 10.8° 975.3 hPa 3.0 m/s 14.5 mm 8.7° 975.4 hPa 6.4 m/s 0.0 mm 10.0° 975.1 hPa 4.9 m/s
17:00 8.5° 974.0 hPa 6.5 m/s 28.9 mm 7.3° 972.4 hPa 4.2 m/s 111.4 mm 9.6° 973.5 hPa 5.3 m/s 5.4 mm 8.7° 975.0 hPa 6.8 m/s 0.0 mm 8.7° 975.2 hPa 6.3 m/s
20:00 7.8° 974.7 hPa 7.5 m/s 30.3 mm 7.6° 972.9 hPa 6.6 m/s 121.4 mm 8.2° 974.9 hPa 5.6 m/s 8.6 mm 8.0° 974.5 hPa 7.8 m/s 0.0 mm 6.5° 977.5 hPa 7.4 m/s
23:00 7.2° 975.0 hPa 8.7 m/s 17.3 mm 6.8° 973.9 hPa 8.3 m/s 123.0 mm 7.8° 975.6 hPa 7.1 m/s 2.0 mm 7.3° 974.9 hPa 9.4 m/s 0.0 mm 7.2° 978.8 hPa 8.2 m/s
 08:41     18:00    Daylength: 9:19 Tomorrow
02:00 6.9° 975.3 hPa 10.8 m/s 8.3 mm 6.6° 973.1 hPa 6.4 m/s 123.6 mm 6.9° 976.4 hPa 8.1 m/s 0.4 mm 7.1° 975.5 hPa 12.6 m/s 0.0 mm 7.7° 979.4 hPa 7.9 m/s
05:00 6.1° 975.7 hPa 11.0 m/s 27.7 mm 6.3° 973.6 hPa 8.4 m/s 127.0 mm 5.9° 977.6 hPa 6.6 m/s 3.6 mm 7.0° 975.9 hPa 14.6 m/s 0.0 mm 6.8° 980.3 hPa 6.6 m/s
08:00 6.9° 975.9 hPa 12.0 m/s 29.5 mm 5.9° 974.5 hPa 13.0 m/s 131.4 mm 6.0° 979.2 hPa 7.2 m/s 4.0 mm 7.1° 975.7 hPa 15.5 m/s 0.0 mm 6.4° 982.6 hPa 9.2 m/s
11:00 7.3° 977.1 hPa 13.2 m/s 30.6 mm 6.1° 976.1 hPa 12.7 m/s 137.7 mm 6.5° 981.4 hPa 9.0 m/s 3.6 mm 7.6° 976.5 hPa 15.4 m/s 0.0 mm 6.8° 985.0 hPa 11.4 m/s
14:00 7.3° 979.9 hPa 14.6 m/s 33.2 mm 5.6° 977.5 hPa 14.6 m/s 145.3 mm 6.3° 984.3 hPa 9.6 m/s 4.1 mm 7.7° 979.6 hPa 15.3 m/s 0.0 mm 6.9° 987.0 hPa 12.4 m/s
17:00 7.3° 982.9 hPa 14.7 m/s 34.6 mm 6.7° 978.2 hPa 16.1 m/s 156.1 mm 6.1° 985.7 hPa 9.4 m/s 3.3 mm 7.5° 983.6 hPa 15.1 m/s 0.0 mm 7.0° 988.5 hPa 11.4 m/s
20:00 7.1° 985.1 hPa 14.1 m/s 35.4 mm 6.2° 979.9 hPa 16.7 m/s 161.9 mm 5.8° 987.3 hPa 8.3 m/s 2.3 mm 7.4° 985.8 hPa 14.7 m/s 0.0 mm 6.7° 989.9 hPa 11.2 m/s
23:00 6.3° 985.1 hPa 12.7 m/s 42.3 mm 6.2° 980.3 hPa 16.0 m/s 166.0 mm 5.8° 988.2 hPa 7.7 m/s 2.1 mm 6.4° 990.8 hPa 10.2 m/s
 08:44     17:57    Daylength: 9:13 Friday 22 Oct
02:00 6.5° 985.3 hPa 12.3 m/s 36.1 mm 6.5° 980.3 hPa 16.5 m/s 169.0 mm 5.5° 988.9 hPa 6.7 m/s 2.2 mm 6.8° 991.1 hPa 10.4 m/s
05:00 6.8° 985.0 hPa 11.8 m/s 37.8 mm 6.8° 980.1 hPa 12.3 m/s 173.8 mm 5.8° 990.0 hPa 7.2 m/s 4.4 mm 7.0° 992.1 hPa 10.6 m/s
08:00 6.9° 986.1 hPa 10.1 m/s 40.7 mm 6.9° 982.2 hPa 13.3 m/s 181.7 mm 5.8° 991.5 hPa 9.0 m/s 7.0 mm 6.9° 993.9 hPa 10.3 m/s
11:00 6.8° 992.0 hPa 10.4 m/s 67.6 mm 7.1° 985.4 hPa 13.9 m/s 189.4 mm 6.7° 993.7 hPa 9.5 m/s 6.6 mm 7.5° 996.7 hPa 12.4 m/s
14:00 7.1° 995.7 hPa 10.2 m/s 68.4 mm 7.3° 990.1 hPa 14.3 m/s 196.0 mm 7.1° 997.1 hPa 9.2 m/s 4.5 mm 7.9° 999.9 hPa 12.1 m/s
17:00 7.1° 1000.2 hPa 10.2 m/s 69.1 mm 7.8° 994.5 hPa 13.7 m/s 200.4 mm 7.0° 1001.6 hPa 9.3 m/s 3.5 mm 8.0° 1002.8 hPa 12.4 m/s
20:00 6.8° 1004.4 hPa 8.8 m/s 69.8 mm 7.7° 999.8 hPa 11.3 m/s 203.3 mm 6.6° 1005.6 hPa 8.2 m/s 3.1 mm 7.8° 1005.9 hPa 12.0 m/s
23:00 6.9° 1007.7 hPa 6.6 m/s 70.7 mm 7.8° 1004.0 hPa 9.6 m/s 205.4 mm 6.6° 1008.6 hPa 5.8 m/s 3.3 mm 8.2° 1008.6 hPa 11.7 m/s
 08:47     17:53    Daylength: 9:06 Saturday 23 Oct
02:00 6.9° 1010.4 hPa 4.9 m/s 70.5 mm 7.7° 1007.4 hPa 7.8 m/s 205.9 mm 6.8° 1011.1 hPa 4.2 m/s 2.7 mm 8.4° 1011.5 hPa 8.5 m/s
05:00 8.8° 1013.8 hPa 4.9 m/s 126.3 mm 8.8° 1013.8 hPa 4.9 m/s 126.3 mm
08:00 7.7° 1015.7 hPa 0.8 m/s 126.5 mm 7.7° 1015.7 hPa 0.8 m/s 126.5 mm
11:00 6.5° 1017.1 hPa 4.4 m/s 126.5 mm 6.5° 1017.1 hPa 4.4 m/s 126.5 mm
14:00 7.2° 1018.4 hPa 3.9 m/s 126.5 mm 7.2° 1018.3 hPa 3.9 m/s 126.5 mm
17:00 7.7° 1017.8 hPa 3.9 m/s 126.5 mm 7.7° 1017.8 hPa 3.9 m/s 126.5 mm
20:00 7.5° 1016.6 hPa 3.9 m/s 126.5 mm 7.5° 1016.6 hPa 3.9 m/s 126.5 mm
23:00 7.0° 1016.4 hPa 4.0 m/s 126.5 mm 7.0° 1016.4 hPa 4.0 m/s 126.5 mm
 08:50     17:50    Daylength: 9:00 Sunday 24 Oct
02:00 7.7° 1015.0 hPa 6.2 m/s 126.5 mm 7.7° 1015.0 hPa 6.2 m/s 126.5 mm
05:00 8.8° 1013.3 hPa 6.9 m/s 126.5 mm 8.8° 1013.3 hPa 6.9 m/s 126.5 mm
08:00 9.4° 1012.3 hPa 6.5 m/s 126.5 mm 9.4° 1012.3 hPa 6.5 m/s 126.5 mm
11:00 9.6° 1012.3 hPa 6.1 m/s 126.5 mm 9.6° 1012.3 hPa 6.1 m/s 126.5 mm
14:00 9.8° 1011.8 hPa 5.2 m/s 126.6 mm 9.8° 1011.8 hPa 5.2 m/s 126.6 mm
17:00 10.1° 1010.9 hPa 5.2 m/s 126.6 mm 10.1° 1010.9 hPa 5.2 m/s 126.6 mm
20:00 10.5° 1010.1 hPa 5.6 m/s 126.6 mm 10.5° 1010.1 hPa 5.6 m/s 126.6 mm
23:00 10.1° 1009.5 hPa 4.8 m/s 126.6 mm 10.1° 1009.5 hPa 4.8 m/s 126.6 mm
 08:53     17:47    Daylength: 8:54 Monday 25 Oct
02:00 10.0° 1008.9 hPa 5.2 m/s 126.6 mm 10.0° 1008.9 hPa 5.2 m/s 126.6 mm
05:00 10.1° 1008.2 hPa 5.0 m/s 126.6 mm 10.1° 1008.2 hPa 5.0 m/s 126.6 mm
08:00 10.0° 1007.0 hPa 5.0 m/s 126.6 mm 10.0° 1007.0 hPa 5.0 m/s 126.6 mm
11:00 10.0° 1006.5 hPa 6.6 m/s 126.6 mm 10.0° 1006.5 hPa 6.6 m/s 126.6 mm
14:00 10.2° 1006.5 hPa 6.0 m/s 126.7 mm 10.2° 1006.5 hPa 6.0 m/s 126.7 mm
17:00 9.8° 1005.9 hPa 5.9 m/s 126.7 mm 9.8° 1005.9 hPa 5.9 m/s 126.7 mm
20:00 9.7° 1005.8 hPa 6.7 m/s 126.8 mm 9.7° 1005.8 hPa 6.7 m/s 126.8 mm
23:00 9.5° 1005.1 hPa 5.8 m/s 126.8 mm 9.5° 1005.1 hPa 5.8 m/s 126.8 mm
 08:56     17:44    Daylength: 8:48 Tuesday 26 Oct
02:00 9.2° 1004.7 hPa 5.1 m/s 127.1 mm 9.2° 1004.7 hPa 5.1 m/s 127.1 mm
05:00 8.5° 1004.5 hPa 6.7 m/s 127.4 mm 8.5° 1004.5 hPa 6.7 m/s 127.4 mm
08:00 8.5° 1002.9 hPa 6.4 m/s 127.4 mm 8.5° 1002.9 hPa 6.4 m/s 127.4 mm
11:00 9.0° 1000.2 hPa 5.3 m/s 127.5 mm 9.0° 1000.2 hPa 5.3 m/s 127.4 mm
14:00 9.5° 995.4 hPa 6.2 m/s 127.5 mm 9.5° 995.4 hPa 6.2 m/s 127.5 mm
17:00 9.3° 989.3 hPa 7.6 m/s 127.5 mm 9.3° 989.3 hPa 7.6 m/s 127.5 mm
20:00 8.7° 988.8 hPa 10.4 m/s 131.0 mm 8.7° 988.8 hPa 10.4 m/s 131.0 mm
23:00 8.9° 992.0 hPa 8.7 m/s 133.3 mm 8.9° 992.0 hPa 8.7 m/s 133.3 mm
 08:59     17:41    Daylength: 8:42 Wednesday 27 Oct
02:00 10.0° 992.4 hPa 11.1 m/s 133.6 mm 10.0° 992.4 hPa 11.1 m/s 133.6 mm
08:00 9.7° 992.2 hPa 9.0 m/s 135.2 mm 9.7° 992.2 hPa 9.0 m/s 135.2 mm
14:00 7.9° 990.4 hPa 5.9 m/s 141.3 mm 7.9° 990.4 hPa 5.9 m/s 141.3 mm
20:00 8.7° 988.9 hPa 13.3 m/s 153.9 mm 8.7° 988.9 hPa 13.3 m/s 153.9 mm
 09:02     17:38    Daylength: 8:36 Thursday 28 Oct
02:00 8.1° 988.7 hPa 11.4 m/s 157.4 mm 8.1° 988.7 hPa 11.4 m/s 157.4 mm
08:00 7.1° 987.6 hPa 8.2 m/s 159.2 mm 7.1° 987.6 hPa 8.2 m/s 159.2 mm
14:00 7.6° 989.9 hPa 6.9 m/s 160.5 mm 7.6° 989.9 hPa 6.9 m/s 160.5 mm
20:00 7.4° 991.2 hPa 7.4 m/s 164.3 mm 7.4° 991.2 hPa 7.4 m/s 164.3 mm
 09:04     17:35    Daylength: 8:31 Friday 29 Oct
02:00 7.5° 991.7 hPa 6.1 m/s 175.6 mm 7.5° 991.7 hPa 6.1 m/s 175.6 mm
08:00 7.2° 990.9 hPa 3.6 m/s 179.5 mm 7.2° 990.9 hPa 3.6 m/s 179.5 mm
14:00 6.4° 997.7 hPa 3.2 m/s 186.2 mm 6.4° 997.7 hPa 3.2 m/s 186.2 mm
20:00 7.7° 997.8 hPa 2.4 m/s 2.4 mm
 09:07     17:32    Daylength: 8:25 Saturday 30 Oct
02:00 7.3° 999.2 hPa 1.9 m/s 2.1 mm